• en France
  • Liste des pays
  • À 7 jours
  • Température de l'eau
  • Carte satellitaire
  • Carte météo
  • Widgets météo
  • user-avatar
    Se connecter

    Météo par heure à Cordoba

    Ce jour, 24 Septembre, Lundi

    Heure Température Précipitation Vent Pression Humidité
    00:00 +18°C° 0 mm 4 m/s 723 mmHg 51%
    01:00 +18°C° 0 mm 4 m/s 723 mmHg 55%
    02:00 +16°C° 0 mm 5 m/s 723 mmHg 59%
    03:00 +15°C° 0 mm 4 m/s 723 mmHg 61%
    04:00 +14°C° 0 mm 4 m/s 724 mmHg 63%
    05:00 +13°C° 0 mm 4 m/s 724 mmHg 65%
    06:00 +14°C° 0 mm 4 m/s 725 mmHg 60%
    07:00 +15°C° 0 mm 4 m/s 725 mmHg 55%
    08:00 +17°C° 0 mm 3 m/s 726 mmHg 51%
    09:00 +18°C° 0 mm 3 m/s 726 mmHg 45%
    10:00 +20°C° 0 mm 3 m/s 726 mmHg 40%
    11:00 +21°C° 0 mm 3 m/s 726 mmHg 35%
    12:00 +22°C° 0 mm 3 m/s 725 mmHg 33%
    13:00 +23°C° 0 mm 4 m/s 725 mmHg 31%
    14:00 +25°C° 0 mm 4 m/s 724 mmHg 28%
    15:00 +25°C° 0 mm 4 m/s 724 mmHg 29%
    16:00 +25°C° 0 mm 4 m/s 723 mmHg 30%
    17:00 +23°C° 0 mm 4 m/s 723 mmHg 31%
    18:00 +22°C° 0 mm 3 m/s 723 mmHg 35%
    19:00 +20°C° 0 mm 2 m/s 723 mmHg 40%
    20:00 +18°C° 0 mm 2 m/s 724 mmHg 44%
    21:00 +17°C° 0 mm 2 m/s 724 mmHg 46%
    22:00 +18°C° 0 mm 1 m/s 724 mmHg 48%
    23:00 +16°C° 0 mm 1 m/s 724 mmHg 50%

    Demain, 25 Septembre, Mardi

    Heure Température Précipitation Vent Pression Humidité
    00:00 +16°C° 0 mm 1 m/s 724 mmHg 51%
    01:00 +15°C° 0 mm 1 m/s 724 mmHg 53%
    02:00 +15°C° 0 mm 1 m/s 723 mmHg 54%
    03:00 +15°C° 0 mm 1 m/s 723 mmHg 56%
    04:00 +14°C° 0 mm 1 m/s 723 mmHg 59%
    05:00 +14°C° 0 mm 1 m/s 723 mmHg 61%
    06:00 +15°C° 0 mm 2 m/s 723 mmHg 59%
    07:00 +16°C° 0 mm 2 m/s 723 mmHg 57%
    08:00 +17°C° 0 mm 2 m/s 723 mmHg 55%
    09:00 +19°C° 0 mm 2 m/s 723 mmHg 50%
    10:00 +21°C° 0 mm 2 m/s 723 mmHg 44%
    11:00 +24°C° 0 mm 2 m/s 723 mmHg 39%
    12:00 +25°C° 0 mm 3 m/s 722 mmHg 37%
    13:00 +26°C° 0 mm 3 m/s 722 mmHg 35%
    14:00 +27°C° 0 mm 3 m/s 721 mmHg 33%
    15:00 +27°C° 0 mm 3 m/s 721 mmHg 35%
    16:00 +26°C° 0 mm 3 m/s 720 mmHg 38%
    17:00 +26°C° 0 mm 4 m/s 720 mmHg 40%
    18:00 +24°C° 0 mm 3 m/s 720 mmHg 50%
    19:00 +21°C° 0 mm 2 m/s 720 mmHg 59%
    20:00 +20°C° 0 mm 1 m/s 721 mmHg 68%
    21:00 +19°C° 0 mm 1 m/s 721 mmHg 73%
    22:00 +19°C° 0 mm 1 m/s 722 mmHg 78%
    23:00 +18°C° 0 mm 1 m/s 722 mmHg 83%

    Après-demain, 26 Septembre, Mercredi

    Heure Température Précipitation Vent Pression Humidité
    00:00 +18°C° 0 mm 1 m/s 722 mmHg 85%
    01:00 +18°C° 0 mm 1 m/s 721 mmHg 87%
    02:00 +18°C° 0 mm 1 m/s 721 mmHg 89%
    03:00 +18°C° 0 mm 1 m/s 721 mmHg 90%
    04:00 +16°C° 0 mm 1 m/s 721 mmHg 90%
    05:00 +16°C° 0 mm 1 m/s 721 mmHg 90%
    06:00 +18°C° 0 mm 1 m/s 721 mmHg 88%
    07:00 +18°C° 0 mm 2 m/s 722 mmHg 85%
    08:00 +18°C° 0 mm 2 m/s 722 mmHg 82%
    09:00 +19°C° 0 mm 2 m/s 722 mmHg 77%
    10:00 +20°C° 0 mm 2 m/s 723 mmHg 72%
    11:00 +21°C° 0 mm 2 m/s 723 mmHg 68%
    12:00 +22°C° 0 mm 3 m/s 722 mmHg 63%
    13:00 +24°C° 0 mm 3 m/s 722 mmHg 58%
    14:00 +25°C° 0 mm 4 m/s 721 mmHg 53%
    15:00 +25°C° 0 mm 4 m/s 721 mmHg 55%
    16:00 +23°C° 0 mm 4 m/s 721 mmHg 56%
    17:00 +23°C° 0 mm 4 m/s 720 mmHg 58%
    18:00 +21°C° 0 mm 3 m/s 721 mmHg 65%
    19:00 +20°C° 0 mm 3 m/s 721 mmHg 72%
    20:00 +18°C° 0 mm 2 m/s 722 mmHg 80%
    21:00 +18°C° 0 mm 2 m/s 722 mmHg 80%
    22:00 +18°C° 0 mm 2 m/s 723 mmHg 81%
    23:00 +19°C° 0 mm 1 m/s 723 mmHg 82%

    27 Septembre, Jeudi

    Heure Température Précipitation Vent Pression Humidité
    00:00 +19°C° 0 mm 1 m/s 723 mmHg 84%
    01:00 +19°C° 0 mm 1 m/s 723 mmHg 86%
    02:00 +18°C° 0 mm 1 m/s 722 mmHg 89%
    03:00 +18°C° 0 mm 1 m/s 722 mmHg 90%
    04:00 +18°C° 0 mm 1 m/s 722 mmHg 92%
    05:00 +16°C° 0 mm 1 m/s 722 mmHg 93%
    06:00 +18°C° 0 mm 1 m/s 722 mmHg 91%
    07:00 +18°C° 0 mm 1 m/s 723 mmHg 89%
    08:00 +19°C° 0 mm 1 m/s 723 mmHg 87%
    09:00 +19°C° 0 mm 2 m/s 724 mmHg 78%
    10:00 +21°C° 0 mm 2 m/s 724 mmHg 70%
    11:00 +23°C° 0 mm 2 m/s 724 mmHg 62%
    12:00 +24°C° 0 mm 3 m/s 723 mmHg 59%
    13:00 +25°C° 0 mm 3 m/s 723 mmHg 55%
    14:00 +26°C° 0 mm 4 m/s 722 mmHg 52%
    15:00 +25°C° 0 mm 4 m/s 722 mmHg 57%
    16:00 +25°C° 0 mm 4 m/s 722 mmHg 62%
    17:00 +23°C° 0 mm 5 m/s 722 mmHg 67%
    18:00 +22°C° 0.1 mm 4 m/s 722 mmHg 74%
    19:00 +21°C° 0.1 mm 3 m/s 723 mmHg 80%
    20:00 +19°C° 0.1 mm 3 m/s 723 mmHg 87%
    21:00 +19°C° 0.1 mm 3 m/s 724 mmHg 89%
    22:00 +19°C° 0.1 mm 2 m/s 724 mmHg 90%
    23:00 +19°C° 0.1 mm 2 m/s 724 mmHg 91%

    28 Septembre, Vendredi

    Heure Température Précipitation Vent Pression Humidité
    00:00 +19°C° 0.1 mm 2 m/s 724 mmHg 91%
    01:00 +18°C° 0.1 mm 2 m/s 724 mmHg 92%
    02:00 +18°C° 0.1 mm 2 m/s 723 mmHg 92%
    03:00 +18°C° 0 mm 2 m/s 723 mmHg 92%
    04:00 +18°C° 0 mm 2 m/s 723 mmHg 93%
    05:00 +18°C° 0 mm 2 m/s 723 mmHg 94%
    06:00 +18°C° 0 mm 2 m/s 723 mmHg 92%
    07:00 +18°C° 0 mm 2 m/s 724 mmHg 90%
    08:00 +18°C° 0 mm 3 m/s 724 mmHg 88%
    09:00 +20°C° 0 mm 3 m/s 724 mmHg 82%
    10:00 +21°C° 0 mm 3 m/s 724 mmHg 76%
    11:00 +22°C° 0 mm 3 m/s 723 mmHg 71%
    12:00 +25°C° 0 mm 4 m/s 723 mmHg 64%
    13:00 +26°C° 0 mm 4 m/s 722 mmHg 58%
    14:00 +28°C° 0 mm 5 m/s 721 mmHg 51%
    15:00 +28°C° 0 mm 5 m/s 721 mmHg 53%
    16:00 +27°C° 0 mm 5 m/s 720 mmHg 55%
    17:00 +27°C° 0 mm 6 m/s 720 mmHg 57%
    18:00 +25°C° 0 mm 5 m/s 720 mmHg 64%
    19:00 +23°C° 0 mm 5 m/s 720 mmHg 71%
    20:00 +22°C° 0 mm 4 m/s 720 mmHg 78%
    21:00 +21°C° 0 mm 4 m/s 720 mmHg 81%
    22:00 +21°C° 0 mm 4 m/s 720 mmHg 84%
    23:00 +21°C° 0 mm 4 m/s 719 mmHg 87%

    29 Septembre, Samedi

    Heure Température Précipitation Vent Pression Humidité
    00:00 +21°C° 0.1 mm 4 m/s 719 mmHg 88%
    01:00 +21°C° 0.1 mm 4 m/s 719 mmHg 89%
    02:00 +21°C° 0.1 mm 4 m/s 718 mmHg 91%
    03:00 +21°C° 0.1 mm 4 m/s 718 mmHg 91%
    04:00 +21°C° 0.1 mm 4 m/s 718 mmHg 91%
    05:00 +21°C° 0.1 mm 4 m/s 718 mmHg 91%
    06:00 +21°C° 0 mm 5 m/s 718 mmHg 86%
    07:00 +22°C° 0 mm 5 m/s 718 mmHg 82%
    08:00 +23°C° 0 mm 5 m/s 719 mmHg 78%
    09:00 +26°C° 0 mm 6 m/s 719 mmHg 69%
    10:00 +28°C° 0 mm 6 m/s 718 mmHg 61%
    11:00 +30°C° 0 mm 6 m/s 718 mmHg 53%
    12:00 +33°C° 0 mm 6 m/s 718 mmHg 47%
    13:00 +34°C° 0 mm 6 m/s 717 mmHg 42%
    14:00 +36°C° 0 mm 6 m/s 717 mmHg 36%
    15:00 +36°C° 0 mm 5 m/s 717 mmHg 35%
    16:00 +36°C° 0 mm 4 m/s 716 mmHg 34%
    17:00 +35°C° 0 mm 4 m/s 716 mmHg 33%
    18:00 +33°C° 0 mm 3 m/s 716 mmHg 40%
    19:00 +30°C° 0 mm 3 m/s 716 mmHg 47%
    20:00 +28°C° 0 mm 3 m/s 716 mmHg 54%
    21:00 +27°C° 0.5 mm 3 m/s 717 mmHg 59%
    22:00 +26°C° 0.5 mm 3 m/s 717 mmHg 64%
    23:00 +25°C° 0.5 mm 2 m/s 717 mmHg 68%
    Voir plus